ONEWEB-0298, 49087

Orbit data source: Space-Track

ONEWEB-0298, 49087 is a payload satellite owned by One Web (NAA) (UK) in LEO that was launched on Sat, 21 Aug 2021 UTC via a SOYUZ-2-1B launch vehicle from the Tyuratam Missile And Space Complex (TTMTR). Payload-class satellites include a variety of spacecraft equipped with specific instruments for various scientific and technological missions. These include communications satellites like Starlink; space stations such as the ISS; scientific satellites like the Hubble; Earth observation satellites from companies like Planet Labs, Umbra, and HawkEye 360; GPS; miniature CubeSats for education and research; and military/defense satellites.

Loading next visibility...
Identifier
49087, 2021-075N
Orbit
LEO
Country
Flag of UKUK
Related business
Manufacturer
One Web
Mission
Operational Commercial Communications
Bus & Motor
ARROW, Unknown motor
Mass
148 kg wet, ~140 kg dry
Launch date (UTC)
2021-08-21 (5 years ago)
Launch vehicle
SOYUZ-2-1B
Launch site
Tyuratam Missile And Space Complex (TTMTR)
Object type
Payload
Rocket body
Debris
Shape & HBR
Trap Box + 2 Pan, 6.7 m
Radar Cross Section
3.464 m², Large (>1 m²)

Expand to show TLE details & history
Last TLE update: 22 hours ago

TLE from 22 hours ago
0 ONEWEB-0298
1 49087U 21075N   26175.25417536  .00000024  00000-0  29778-4 0  9990
2 49087  87.9131   4.4613 0001858  85.2810 274.8534 13.17647518234558
Epoch: 2026-06-24T06:06Z
TLE epoch observation values (Epoch: 2026-06-24T06:06:00.751Z)
Latitude
0.00003°
Longitude
0.54414°
Altitude
1,196.499 km
Speed
7.256 km/s
True Right ascension
00h 17m 50s
True Declination
0° 00' 00"
Sunlit
Object was in daylight at epoch
Visualization orbit readout
Latitude
Unknown
Longitude
Unknown
Altitude
Unknown
Speed
Unknown
Apparent Right ascension
Unknown
Apparent Declination
Unknown
Sunlit
N/A
Visualization observer readout
Local Sidereal Time
15:28:35
Azimuth
Unknown
Elevation
Unknown
Doppler factor
Unknown
Orbital elements
Apogee altitude
1,192.234 km
Perigee altitude
1,189.421 km
Semi-major axis
7,568.965 km
Eccentricity
0.00019
Inclination
87.9131°
RAAN
4.4613°
Arg. of periapsis
85.281°
True anomaly
274.83218°
Mean anomaly
274.8534°
Eccentric anomaly
274.84279°
Mean motion
3.29601 °/min
Orbital period
109.22 mins
BSTAR
0.000029778
Loading maneuver chart data...
Computing Atmospheric mass density...
Loading historical data...
Loading historical data...
Loading historical data...
Loading historical data...
Loading historical data...
Loading historical data...
Loading historical data...

Documentation

Showing up to 5 results
|